Boulder City, NV

1:58 PM PDT on July 28, 2016 (GMT -0700)
Boulder City

Weather History for KBVU - October, 2012

Change the Weather History Date:

Monday, October 8, 2012

  Actual Average (KLAS) Record (KLAS)
Temperature  
Mean Temperature 73 °F 73 °F  
Max Temperature 89 °F 84 °F 98 °F (1964)
Min Temperature 57 °F 62 °F 41 °F (1941)
Degree Days  
Heating Degree Days 0 0  
Month to date heating degree days 0  
Since 1 July heating degree days 1  
Cooling Degree Days 8 8  
Month to date cooling degree days 77  
Year to date cooling degree days 3454  
Growing Degree Days 23 (Base 50)    
Moisture  
Dew Point 33 °F    
Average Humidity 26    
Maximum Humidity 48    
Minimum Humidity 11    
Precipitation  
Precipitation 0.00 in 0.01 in 0.05 in (1961)
Month to date precipitation 0.05  
Year to date precipitation 3.11  
Snow  
Snow 0.00 in 0.00 in 0.00 in ()
Month to date snowfall 0.0  
Since 1 July snowfall 0.0  
Since 1 September snowfall 0.0  
Snow Depth -    
Sea Level Pressure  
Sea Level Pressure 29.90 in    
Wind  
Wind Speed 4 mph (SSE)    
Max Wind Speed 22 mph    
Max Gust Speed 31 mph    
Visibility 10 miles    
Events      
T = Trace of Precipitation, MM = Missing Value Source: NWS Daily Summary

Daily Weather History Graph

Daily Weather History Graph

Search for Another Location

Airport or City:

Trip Planner

Search our weather history database for the weather conditions in past years. The results will help you decide how hot, cold, wet, or windy it might be!

Date:

Astronomy

Oct. 08, 2012 Rise Set
Actual Time 6:40 AM PDT 6:12 PM PDT
Civil Twilight 6:15 AM PDT 6:37 PM PDT
Nautical Twilight 5:45 AM PDT 7:07 PM PDT
Astronomical Twilight 5:15 AM PDT 7:37 PM PDT
Moon No Moon Rise 1:53 PM PDT (10/8)
Length of Visible Light 12h 22m
Length of Day
11h 31m
Last Quarter, 45% of the Moon is Illuminated
Oct 8
Last Quarter
Oct 15
New
Oct 21
First Quarter
Oct 29
Full
Nov 6
Last Quarter

Hourly Weather History & Observations

Time (PDT) Temp. Dew Point Humidity Pressure Visibility Wind Dir Wind Speed Gust Speed Precip Events Conditions
12:35 AM 62.6 °F 33.8 °F 34% 29.91 in 10.0 mi Calm Calm - N/A   Clear
12:55 AM 62.6 °F 39.2 °F 42% 29.91 in 10.0 mi Calm Calm - N/A   Clear
1:15 AM 62.6 °F 37.4 °F 39% 29.92 in 10.0 mi Calm Calm - N/A   Clear
1:35 AM 60.8 °F 37.4 °F 42% 29.92 in 10.0 mi Calm Calm - N/A   Clear
1:55 AM 62.6 °F 35.6 °F 37% 29.92 in 10.0 mi Calm Calm - N/A   Clear
2:15 AM 60.8 °F 35.6 °F 39% 29.92 in 10.0 mi Calm Calm - N/A   Clear
2:35 AM 59.0 °F 37.4 °F 45% 29.91 in 10.0 mi Calm Calm - N/A   Clear
2:55 AM 59.0 °F 39.2 °F 48% 29.91 in 10.0 mi Calm Calm - N/A   Clear
3:15 AM 59.0 °F 37.4 °F 45% 29.91 in 10.0 mi Calm Calm - N/A   Clear
3:35 AM 59.0 °F 37.4 °F 45% 29.91 in 10.0 mi Calm Calm - N/A   Clear
3:55 AM 59.0 °F 33.8 °F 39% 29.91 in 10.0 mi Calm Calm - N/A   Clear
4:15 AM 59.0 °F 35.6 °F 42% 29.91 in 10.0 mi Calm Calm - N/A   Clear
4:35 AM 60.8 °F 35.6 °F 39% 29.91 in 10.0 mi Calm Calm - N/A   Clear
4:55 AM 59.0 °F 35.6 °F 42% 29.92 in 10.0 mi Calm Calm - N/A   Clear
5:15 AM 59.0 °F 32.0 °F 36% 29.92 in 10.0 mi NNW 4.6 mph - N/A   Clear
5:35 AM 59.0 °F 35.6 °F 42% 29.92 in 10.0 mi Calm Calm - N/A   Clear
5:55 AM 64.4 °F 30.2 °F 28% 29.93 in 10.0 mi Calm Calm - N/A   Clear
6:15 AM 59.0 °F 35.6 °F 42% 29.93 in 10.0 mi Calm Calm - N/A   Clear
6:35 AM 57.2 °F 35.6 °F 44% 29.93 in 10.0 mi Calm Calm - N/A   Clear
6:55 AM 57.2 °F 35.6 °F 44% 29.94 in 10.0 mi Calm Calm - N/A   Clear
7:15 AM 59.0 °F 37.4 °F 45% 29.95 in 10.0 mi Calm Calm - N/A   Clear
7:35 AM 62.6 °F 37.4 °F 39% 29.95 in 10.0 mi Calm Calm - N/A   Clear
7:55 AM 66.2 °F 35.6 °F 32% 29.96 in 10.0 mi Calm Calm - N/A   Clear
8:15 AM 66.2 °F 37.4 °F 35% 29.96 in 10.0 mi Calm Calm - N/A   Clear
8:35 AM 68.0 °F 32.0 °F 26% 29.96 in 10.0 mi Calm Calm - N/A   Clear
8:55 AM 71.6 °F 32.0 °F 23% 29.97 in 10.0 mi Calm Calm - N/A   Clear
9:15 AM 73.4 °F 30.2 °F 20% 29.97 in 10.0 mi Calm Calm - N/A   Clear
9:35 AM 75.2 °F 32.0 °F 21% 29.96 in 10.0 mi SSE 3.5 mph - N/A   Clear
9:55 AM 75.2 °F 32.0 °F 21% 29.96 in 10.0 mi East 3.5 mph - N/A   Clear
10:15 AM 77.0 °F 28.4 °F 17% 29.96 in 10.0 mi Calm Calm - N/A   Clear
10:55 AM 80.6 °F 28.4 °F 15% 29.95 in 10.0 mi NE 4.6 mph - N/A   Clear
11:15 AM 80.6 °F 30.2 °F 16% 29.94 in 10.0 mi ENE 3.5 mph - N/A   Clear
11:35 AM 82.4 °F 32.0 °F 16% 29.94 in 10.0 mi East 9.2 mph - N/A   Clear
11:55 AM 84.2 °F 32.0 °F 15% 29.93 in 10.0 mi South 10.4 mph - N/A   Clear
12:15 PM 86.0 °F 32.0 °F 14% 29.92 in 10.0 mi SSE 11.5 mph 17.3 mph N/A   Clear
12:35 PM 84.2 °F 33.8 °F 16% 29.91 in 10.0 mi SE 11.5 mph 16.1 mph N/A   Clear
12:55 PM 86.0 °F 35.6 °F 17% 29.90 in 10.0 mi SE 12.7 mph 18.4 mph N/A   Clear
1:15 PM 86.0 °F 35.6 °F 17% 29.89 in 10.0 mi SE 11.5 mph 20.7 mph N/A   Clear
1:35 PM 87.8 °F 35.6 °F 16% 29.88 in 10.0 mi SSE 16.1 mph - N/A   Clear
1:55 PM 86.0 °F 37.4 °F 18% 29.87 in 10.0 mi SSE 12.7 mph - N/A   Clear
2:15 PM 87.8 °F 37.4 °F 17% 29.86 in 10.0 mi SSE 16.1 mph 24.2 mph N/A   Clear
2:35 PM 87.8 °F 37.4 °F 17% 29.86 in 10.0 mi SE 13.8 mph 19.6 mph N/A   Clear
2:55 PM 87.8 °F 35.6 °F 16% 29.85 in 10.0 mi SSE 18.4 mph 24.2 mph N/A   Clear
3:15 PM 89.6 °F 35.6 °F 15% 29.84 in 10.0 mi SSE 19.6 mph 24.2 mph N/A   Clear
3:35 PM 87.8 °F 35.6 °F 16% 29.84 in 10.0 mi SSE 21.9 mph 26.5 mph N/A   Clear
3:55 PM 87.8 °F 35.6 °F 16% 29.84 in 10.0 mi SSE 20.7 mph 26.5 mph N/A   Clear
4:15 PM 87.8 °F 35.6 °F 16% 29.84 in 10.0 mi SE 16.1 mph 20.7 mph N/A   Clear
4:35 PM 87.8 °F 37.4 °F 17% 29.83 in 10.0 mi SSE 19.6 mph - N/A   Clear
4:55 PM 87.8 °F 37.4 °F 17% 29.83 in 10.0 mi SSE 20.7 mph 26.5 mph N/A   Clear
5:35 PM 86.0 °F 37.4 °F 18% 29.83 in 10.0 mi SSE 20.7 mph 31.1 mph N/A   Clear
5:55 PM 84.2 °F 39.2 °F 20% 29.84 in 10.0 mi South 9.2 mph - N/A   Clear
6:35 PM 82.4 °F 30.2 °F 15% 29.85 in 10.0 mi South 6.9 mph - N/A   Clear
6:55 PM 80.6 °F 23.0 °F 12% 29.85 in 10.0 mi South 6.9 mph - N/A   Clear
7:15 PM 78.8 °F 21.2 °F 12% 29.86 in 10.0 mi South 5.8 mph - N/A   Clear
7:35 PM 77.0 °F 19.4 °F 12% 29.87 in 10.0 mi SSW 8.1 mph - N/A   Clear
7:55 PM 77.0 °F 17.6 °F 11% 29.87 in 10.0 mi South 5.8 mph - N/A   Clear
8:15 PM 77.0 °F 17.6 °F 11% 29.87 in 10.0 mi Calm Calm - N/A   Clear
8:55 PM 71.6 °F 26.6 °F 19% 29.88 in 10.0 mi Calm Calm - N/A   Clear
9:35 PM 69.8 °F 28.4 °F 21% 29.89 in 10.0 mi Calm Calm - N/A   Clear
10:15 PM 71.6 °F 23.0 °F 16% 29.89 in 10.0 mi NW 3.5 mph - N/A   Clear
10:35 PM 66.2 °F 35.6 °F 32% 29.89 in 10.0 mi Calm Calm - N/A   Clear
10:55 PM 68.0 °F 24.8 °F 20% 29.89 in 10.0 mi WNW 5.8 mph - N/A   Clear
11:15 PM 69.8 °F 24.8 °F 18% 29.90 in 10.0 mi West 5.8 mph - N/A   Clear
11:35 PM 71.6 °F 24.8 °F 17% 29.90 in 10.0 mi WSW 4.6 mph - N/A   Clear
11:55 PM 73.4 °F 26.6 °F 18% 29.90 in 10.0 mi SSW 4.6 mph - N/A   Clear